Last 24 Hours

Thomas Mountain

10 Minute Data | America/Los_Angeles
as of 5/6/26 12:00 AM PDT
Date & Time Temp (°F) Dew Pt (°F) RH (%) Wind Spd (mph) Wind Dir (°) Wind Gust (mph) Wind Gst Dir (°) Daily Max Temp (°F) Daily Min Temp (°F)
5/5/26 - 2350 39.3 37.9 95 3.9 NW | 314 9.4 N | 2 48.4 37.8
5/5/26 - 2340 39.2 38.6 98 5.8 NNW | 336 10.7 N | 350 48.4 37.8
5/5/26 - 2330 39.0 39.0 100 1.9 NW | 315 8.1 NNW | 339 48.4 37.8
5/5/26 - 2320 39.1 39.0 100 0.8 WNW | 302 2.5 NNW | 337 48.4 37.8
5/5/26 - 2310 39.1 39.0 100 2.3 WNW | 301 4.5 W | 266 48.4 37.8
5/5/26 - 2300 39.2 39.1 100 3.3 W | 259 6.1 WSW | 253 48.4 37.8
5/5/26 - 2250 39.2 39.1 100 2.7 W | 279 4.7 WSW | 258 48.4 37.8
5/5/26 - 2240 39.2 39.0 99 3.0 WSW | 254 4.6 W | 277 48.4 37.8
5/5/26 - 2230 39.2 39.0 99 2.7 WSW | 256 4.2 W | 274 48.4 37.8
5/5/26 - 2220 39.2 39.0 99 2.8 W | 271 4.0 W | 271 48.4 37.8
5/5/26 - 2210 39.2 38.9 99 3.1 W | 262 5.3 WSW | 255 48.4 37.8
5/5/26 - 2200 39.4 39.0 99 3.1 WSW | 248 5.0 SW | 235 48.4 37.8
5/5/26 - 2150 39.4 39.1 99 2.9 W | 259 4.3 WSW | 252 48.4 37.8
5/5/26 - 2140 39.5 39.1 99 2.9 W | 269 4.8 W | 281 48.4 37.8
5/5/26 - 2130 39.7 39.2 98 2.6 WSW | 258 4.7 WSW | 248 48.4 37.8
5/5/26 - 2120 39.8 39.3 98 2.5 W | 269 3.9 WSW | 253 48.4 37.8
5/5/26 - 2110 40.1 39.4 97 1.1 W | 274 3.4 WSW | 254 48.4 37.8
5/5/26 - 2100 40.4 39.4 96 1.5 W | 266 2.8 WNW | 285 48.4 37.8
5/5/26 - 2050 40.4 39.6 97 1.8 NNE | 16 4.5 ENE | 73 48.4 37.8
5/5/26 - 2040 40.1 39.8 99 2.3 NNW | 328 5.3 NNE | 22 48.4 37.8
5/5/26 - 2030 39.8 39.6 99 1.5 WNW | 301 3.0 W | 279 48.4 37.8
5/5/26 - 2020 39.8 39.6 99 2.6 W | 263 5.8 WNW | 288 48.4 37.8
5/5/26 - 2010 39.9 39.5 98 6.3 W | 263 9.8 W | 265 48.4 37.8
5/5/26 - 2000 40.3 39.6 98 5.1 WSW | 257 8.0 W | 272 48.4 37.8
5/5/26 - 1950 40.4 39.6 97 5.9 W | 276 10.4 W | 271 48.4 37.8
5/5/26 - 1940 40.4 39.7 97 6.7 WNW | 283 12.2 W | 276 48.4 37.8
5/5/26 - 1930 40.6 39.7 96 9.0 W | 272 13.4 WNW | 287 48.4 37.8
5/5/26 - 1920 40.9 39.6 95 8.0 W | 262 14.8 W | 276 48.4 37.8
5/5/26 - 1910 41.1 39.5 94 7.8 W | 260 13.6 WSW | 254 48.4 37.8
5/5/26 - 1900 41.5 39.3 92 8.8 WSW | 258 15.3 WSW | 257 48.4 37.8
5/5/26 - 1850 42.1 39.3 90 8.7 W | 260 15.1 W | 264 48.4 37.8
5/5/26 - 1840 42.4 39.0 88 9.1 WSW | 258 15.0 WSW | 246 48.4 37.8
5/5/26 - 1830 43.0 38.1 82 10.1 W | 275 15.1 W | 278 48.4 37.8
5/5/26 - 1820 44.2 38.1 79 9.1 W | 279 14.0 W | 270 48.4 37.8
5/5/26 - 1810 44.5 38.1 78 9.3 W | 278 15.9 W | 278 48.4 37.8
5/5/26 - 1800 44.6 38.0 78 11.3 W | 280 17.0 W | 262 48.4 37.8
5/5/26 - 1750 44.8 37.9 77 12.0 W | 280 19.3 WNW | 284 48.4 37.8
5/5/26 - 1740 45.2 38.0 76 11.5 W | 270 18.9 W | 276 48.4 37.8
5/5/26 - 1730 45.1 38.5 78 10.3 W | 264 19.2 W | 259 48.4 37.8
5/5/26 - 1720 44.9 38.4 78 9.6 W | 267 19.7 SW | 235 48.4 37.8
5/5/26 - 1710 45.1 38.4 77 11.0 WSW | 254 17.8 WSW | 250 48.4 37.8
5/5/26 - 1700 44.9 38.4 78 11.3 W | 280 19.4 WNW | 288 48.4 37.8
5/5/26 - 1650 45.2 38.6 78 11.8 W | 262 20.1 W | 279 48.4 37.8
5/5/26 - 1640 45.2 38.0 76 11.9 W | 276 20.1 WSW | 252 48.4 37.8
5/5/26 - 1630 45.0 38.2 77 9.7 WNW | 282 16.6 W | 272 48.4 37.8
5/5/26 - 1620 44.0 38.5 81 12.0 WNW | 284 18.0 W | 275 48.4 37.8
5/5/26 - 1610 44.7 38.3 78 11.1 W | 272 20.1 W | 280 48.4 37.8
5/5/26 - 1600 43.9 37.7 78 10.1 WNW | 283 17.2 W | 276 48.4 37.8
5/5/26 - 1550 44.3 37.6 77 11.3 W | 275 21.0 W | 264 48.4 37.8
5/5/26 - 1540 45.0 37.8 76 9.3 W | 263 15.0 WSW | 245 48.4 37.8
5/5/26 - 1530 45.6 37.3 73 9.8 W | 280 16.7 W | 268 48.4 37.8
5/5/26 - 1520 44.7 37.4 75 9.2 WNW | 295 17.4 NW | 307 48.4 37.8
5/5/26 - 1510 45.6 36.4 70 10.0 W | 263 21.4 W | 279 48.4 37.8
5/5/26 - 1500 46.6 36.2 67 12.3 WSW | 251 20.5 WSW | 255 48.4 37.8
5/5/26 - 1450 47.2 34.4 61 12.7 WSW | 258 20.8 WSW | 247 48.4 37.8
5/5/26 - 1440 46.2 34.8 64 12.8 WSW | 255 22.6 WSW | 238 47.2 37.8
5/5/26 - 1430 46.0 34.2 63 11.0 W | 275 17.5 WSW | 247 46.7 37.8
5/5/26 - 1420 45.8 34.9 66 10.1 W | 277 19.5 WSW | 255 46.7 37.8
5/5/26 - 1410 44.5 36.2 72 10.0 WNW | 285 16.5 WNW | 283 45.4 37.8
5/5/26 - 1400 44.9 37.6 76 7.9 WNW | 292 14.1 WNW | 286 45.4 37.8
5/5/26 - 1350 44.5 37.4 76 8.9 W | 271 16.7 W | 270 45.1 37.8
5/5/26 - 1340 43.5 36.3 76 9.4 W | 268 17.1 W | 271 44.2 37.8
5/5/26 - 1330 43.4 36.5 76 9.5 WSW | 254 16.2 W | 259 44.0 37.8
5/5/26 - 1320 43.6 36.4 76 9.9 W | 263 21.5 W | 262 44.0 37.8
5/5/26 - 1310 42.9 36.5 78 10.1 W | 267 17.1 WSW | 237 43.8 37.8
5/5/26 - 1300 43.0 38.3 83 9.9 W | 259 20.0 WSW | 252 43.7 37.8
5/5/26 - 1250 41.2 38.7 91 7.5 WNW | 284 13.0 W | 272 41.8 37.8
5/5/26 - 1240 40.7 38.5 92 6.4 WNW | 283 11.5 WNW | 282 41.2 37.8
5/5/26 - 1230 39.9 38.4 94 8.3 WNW | 285 13.9 W | 262 40.2 37.8
5/5/26 - 1220 39.7 38.8 97 8.4 W | 275 16.4 W | 267 40.2 37.8
5/5/26 - 1210 39.0 38.6 98 7.4 W | 269 12.4 W | 268 40.2 37.8
5/5/26 - 1200 39.7 39.7 100 7.0 W | 276 13.5 WNW | 284 40.2 37.8
5/5/26 - 1150 38.5 38.5 100 8.8 WNW | 291 15.8 W | 268 39.6 37.8
5/5/26 - 1140 38.2 38.2 100 10.5 WNW | 283 16.9 WNW | 289 39.6 37.8
5/5/26 - 1130 38.5 38.4 100 7.5 WNW | 290 15.6 WNW | 293 39.6 37.8
5/5/26 - 1120 38.3 38.3 100 9.0 WNW | 282 16.2 WNW | 282 39.6 37.8
5/5/26 - 1110 38.7 38.6 100 8.9 W | 261 15.6 W | 261 39.6 37.8
5/5/26 - 1100 38.7 38.7 100 9.1 WSW | 256 16.1 WSW | 257 39.6 37.8
5/5/26 - 1050 38.3 38.3 100 11.1 WSW | 254 21.3 WSW | 252 39.6 37.8
5/5/26 - 1040 38.6 38.6 100 11.4 WSW | 255 18.5 WSW | 250 39.6 37.8
5/5/26 - 1030 38.6 38.6 100 9.0 W | 261 17.5 W | 267 39.6 37.8
5/5/26 - 1020 38.8 38.8 100 8.4 W | 261 18.0 W | 266 39.6 37.8
5/5/26 - 1010 38.8 38.8 100 11.3 WSW | 250 17.4 WSW | 246 39.6 37.8
5/5/26 - 1000 38.9 38.9 100 12.2 WSW | 248 18.1 WSW | 244 39.6 37.8
5/5/26 - 0950 38.7 38.7 100 12.0 WSW | 251 21.0 WSW | 252 39.6 37.8
5/5/26 - 0940 38.7 38.7 100 13.2 WSW | 251 20.4 WSW | 246 39.6 37.8
5/5/26 - 0930 38.8 38.8 100 12.7 WSW | 253 21.0 WSW | 256 39.6 37.8
5/5/26 - 0920 39.2 39.2 100 10.9 WSW | 258 19.6 WSW | 252 39.6 37.8
5/5/26 - 0910 39.0 38.9 100 9.8 WSW | 255 18.4 W | 261 39.6 37.8
5/5/26 - 0900 39.0 38.9 100 10.7 WSW | 256 17.4 WSW | 250 39.6 37.8
5/5/26 - 0850 39.2 39.2 100 10.9 W | 259 17.7 WSW | 252 39.6 37.8
5/5/26 - 0840 39.0 39.0 100 9.6 W | 273 15.3 W | 275 39.6 37.8
5/5/26 - 0830 38.5 38.5 100 9.4 W | 272 15.9 WSW | 255 39.2 37.8
5/5/26 - 0820 38.5 38.5 100 11.0 W | 265 16.4 W | 276 39.2 37.8
5/5/26 - 0810 38.8 38.8 100 9.6 WSW | 258 16.1 W | 275 39.2 37.8
5/5/26 - 0800 38.8 38.7 100 9.8 WSW | 258 21.4 W | 259 39.2 37.8
5/5/26 - 0750 38.7 38.6 100 10.1 W | 280 17.7 WNW | 286 39.2 37.8
5/5/26 - 0740 38.7 38.7 100 7.8 WNW | 286 15.0 W | 269 39.2 37.8
5/5/26 - 0730 38.3 38.3 100 8.8 WNW | 299 12.9 NW | 315 39.2 37.8
5/5/26 - 0720 38.2 38.1 100 8.3 WNW | 289 13.0 W | 268 39.2 37.8
5/5/26 - 0710 38.0 37.9 100 9.0 WNW | 288 16.3 W | 271 39.2 37.8
5/5/26 - 0700 37.9 37.9 100 10.6 WNW | 284 16.2 WNW | 295 39.2 37.8
5/5/26 - 0650 38.0 38.0 100 9.7 WNW | 285 16.4 W | 265 39.2 37.8
5/5/26 - 0640 37.9 37.9 100 11.0 W | 281 16.2 WNW | 294 39.2 37.8
5/5/26 - 0630 38.0 37.9 100 10.6 W | 277 17.0 W | 268 39.2 37.8
5/5/26 - 0620 38.1 38.1 100 8.2 W | 266 15.7 W | 275 39.2 37.8
5/5/26 - 0610 38.4 38.3 100 9.4 W | 262 17.5 WNW | 290 39.2 37.8
5/5/26 - 0600 38.4 38.4 100 10.4 W | 260 16.8 W | 265 39.2 37.8
5/5/26 - 0550 38.4 38.4 100 10.0 W | 280 15.9 W | 274 39.2 37.8
5/5/26 - 0540 38.5 38.5 100 9.6 W | 275 15.1 W | 274 39.2 37.8
5/5/26 - 0530 38.6 38.5 100 8.3 W | 276 14.7 W | 270 39.2 37.8
5/5/26 - 0520 38.6 38.5 100 9.3 W | 276 13.5 W | 272 39.2 37.8
5/5/26 - 0510 38.6 38.5 100 9.3 W | 278 15.2 W | 260 39.2 37.8
5/5/26 - 0500 38.6 38.5 100 7.6 W | 278 13.7 W | 270 39.2 37.8
5/5/26 - 0450 38.4 38.3 100 5.7 W | 268 10.4 WSW | 250 39.2 37.8
5/5/26 - 0440 38.2 38.1 100 6.2 W | 280 13.1 WNW | 296 39.2 37.8
5/5/26 - 0430 37.8 37.8 100 6.7 NNW | 345 10.3 NW | 307 39.2 37.8
5/5/26 - 0420 37.8 37.8 100 7.0 N | 6 9.9 N | 5 39.2 37.8
5/5/26 - 0410 38.1 38.1 100 7.2 N | 5 11.2 N | 11 39.2 37.9
5/5/26 - 0400 38.3 38.2 100 4.3 NW | 318 7.4 WNW | 303 39.2 37.9
5/5/26 - 0350 38.2 38.1 100 6.2 WNW | 289 12.8 W | 273 39.2 37.9
5/5/26 - 0340 38.0 38.0 100 5.3 WNW | 287 9.2 W | 270 39.2 37.9
5/5/26 - 0330 37.9 37.9 100 6.7 WNW | 289 10.6 W | 273 39.2 37.9
5/5/26 - 0320 37.9 37.8 100 7.7 W | 272 13.1 WSW | 254 39.2 37.9
5/5/26 - 0310 38.0 38.0 100 9.2 W | 260 13.7 WSW | 239 39.2 37.9
5/5/26 - 0300 38.1 38.1 100 9.3 W | 269 16.3 W | 274 39.2 37.9
5/5/26 - 0250 38.2 38.0 99 9.8 W | 268 16.1 WNW | 293 39.2 37.9
5/5/26 - 0240 38.5 37.6 97 11.4 WSW | 257 18.6 WSW | 254 39.2 37.9
5/5/26 - 0230 38.4 38.3 100 10.2 W | 279 14.2 WNW | 284 39.0 37.9
5/5/26 - 0220 38.7 38.7 100 10.4 W | 274 15.0 WSW | 256 39.0 37.9
5/5/26 - 0210 38.4 38.4 100 9.7 WNW | 297 15.0 WNW | 288 38.8 37.9
5/5/26 - 0200 38.0 38.0 100 12.0 W | 280 16.4 W | 271 38.6 37.9
5/5/26 - 0150 37.9 37.8 100 13.6 W | 270 18.3 W | 264 38.6 37.9
5/5/26 - 0140 37.9 37.9 100 12.0 W | 261 20.4 WSW | 258 38.6 37.9
5/5/26 - 0130 38.1 38.1 100 11.8 WSW | 252 18.0 W | 263 38.6 38.0
5/5/26 - 0120 38.4 38.4 100 11.5 WSW | 257 16.2 WSW | 251 38.6 38.2
5/5/26 - 0110 38.6 38.5 100 11.6 W | 263 18.6 W | 270 38.6 38.5
5/5/26 - 0100 38.5 38.5 100 11.6 W | 274 18.8 W | 276 47.6 37.9
5/5/26 - 0050 38.4 38.3 100 8.5 WNW | 283 13.4 WNW | 294 47.6 37.9
5/5/26 - 0040 38.4 38.3 99 9.4 W | 274 17.9 W | 277 47.6 37.9
5/5/26 - 0030 38.9 38.6 99 5.4 W | 271 9.5 WSW | 258 47.6 37.9
5/5/26 - 0020 38.9 38.8 100 6.1 NW | 320 10.7 NNW | 339 47.6 37.9
5/5/26 - 0010 38.7 38.7 100 4.0 WNW | 289 7.6 WNW | 298 47.6 37.9
5/5/26 - 0000 39.2 39.1 100 6.6 NNW | 340 11.8 NNW | 348 47.6 37.9
Max 47.2 39.8 100 13.6 - 22.6 - 48.4 38.5
Avg 40.3 38.3 93 8.4 - 14.3 - - -
Min 37.8 34.2 61 0.8 - 2.5 - 38.6 37.8